Weather History for Sheridan, WY

Change the Weather History Date:

Thursday, May 30, 2013

  Actual Average Record
Temperature  
Mean Temperature 48 °F 56 °F  
Max Temperature 50 °F 71 °F 91 °F (1984)
Min Temperature 45 °F 42 °F 30 °F (1914)
Degree Days  
Heating Degree Days 17 9  
Month to date heating degree days 323 384  
Since 1 July heating degree days 7415 7485  
Cooling Degree Days 0 0  
Month to date cooling degree days 8 0  
Year to date cooling degree days 8 0  
Moisture  
Dew Point 44 °F    
Average Humidity 87    
Maximum Humidity 93    
Minimum Humidity 80    
Precipitation  
Precipitation 0.30 in 0.08 in 1.28 in (1937)
Month to date precipitation 2.93 2.27  
Year to date precipitation 7.22 5.95  
Sea Level Pressure  
Sea Level Pressure 29.65 in    
Wind  
Wind Speed 26 mph (NW)    
Max Wind Speed 37 mph    
Max Gust Speed 47 mph    
Visibility 10 miles    
Events Rain    
T = Trace of Precipitation, MM = Missing Value Source: NWS Daily Summary

Daily Weather History Graph

Daily Weather History Graph

Search for Another Location

Airport:

Trip Planner

Search our weather history database for the weather conditions in past years. The results will help you decide how hot, cold, wet, or windy it might be!

Date:

Astronomy

May. 30, 2013 Rise Set
Actual Time 5:26 AM MDT 8:45 PM MDT
Civil Twilight 4:50 AM MDT 9:21 PM MDT
Nautical Twilight 4:03 AM MDT 10:08 PM MDT
Astronomical Twilight 3:05 AM MDT 11:06 PM MDT
Moon 12:38 AM MDT (5/30) 11:48 AM MDT (5/30)
Length of Visible Light 16h 30m
Length of Day
15h 18m
Waning Gibbous, 61% of the Moon is Illuminated
May 30
Waning Gibbous
May 31
Last Quarter
Jun 8
New
Jun 16
First Quarter
Jun 23
Full

Hourly Weather History & Observations

Time (MDT) Temp. Windchill Dew Point Humidity Pressure Visibility Wind Dir Wind Speed Gust Speed Precip Events Conditions
12:53 AM 48.9 °F - 46.9 °F 93% 29.60 in 10.0 mi NW 16.1 mph 23.0 mph 0.02 in Rain Light Rain
1:53 AM 48.9 °F - 46.9 °F 93% 29.59 in 10.0 mi NW 13.8 mph - 0.02 in Rain Light Rain
2:53 AM 48.9 °F - 46.0 °F 90% 29.57 in 10.0 mi NW 16.1 mph - 0.02 in Rain Light Rain
3:53 AM 48.9 °F - 46.0 °F 90% 29.56 in 10.0 mi NW 16.1 mph - 0.01 in Rain Light Rain
4:53 AM 48.9 °F - 46.0 °F 90% 29.56 in 10.0 mi NW 16.1 mph 21.9 mph 0.05 in Rain Light Rain
5:53 AM 48.9 °F - 45.0 °F 86% 29.57 in 10.0 mi NW 21.9 mph 29.9 mph 0.06 in Rain Light Rain
6:53 AM 48.9 °F - 45.0 °F 86% 29.57 in 10.0 mi NW 20.7 mph 29.9 mph 0.03 in   Overcast
7:53 AM 50.0 °F - 46.0 °F 86% 29.58 in 10.0 mi NW 21.9 mph 28.8 mph 0.00 in Rain Light Rain
8:53 AM 50.0 °F - 45.0 °F 83% 29.58 in 10.0 mi NW 28.8 mph 38.0 mph 0.00 in Rain Light Rain
9:53 AM 48.9 °F - 44.1 °F 83% 29.58 in 10.0 mi NW 35.7 mph 44.9 mph 0.01 in Rain Light Rain
10:53 AM 48.9 °F - 43.0 °F 80% 29.60 in 10.0 mi WNW 28.8 mph 36.8 mph 0.00 in Rain Light Rain
11:53 AM 48.9 °F - 43.0 °F 80% 29.61 in 10.0 mi NW 29.9 mph 42.6 mph 0.01 in Rain Light Rain
12:53 PM 48.9 °F - 43.0 °F 80% 29.61 in 10.0 mi NW 35.7 mph 46.0 mph 0.00 in Rain Light Rain
1:53 PM 48.9 °F - 44.1 °F 83% 29.63 in 10.0 mi NW 32.2 mph 44.9 mph 0.01 in Rain Light Rain
2:53 PM 48.9 °F - 44.1 °F 83% 29.65 in 10.0 mi NW 27.6 mph 43.7 mph 0.00 in Rain Light Rain
3:53 PM 46.9 °F - 43.0 °F 86% 29.68 in 10.0 mi NW 34.5 mph 47.2 mph 0.00 in Rain Light Rain
4:53 PM 48.0 °F - 44.1 °F 86% 29.70 in 10.0 mi NW 33.4 mph 41.4 mph 0.02 in Rain Light Rain
5:53 PM 48.0 °F - 44.1 °F 86% 29.72 in 10.0 mi NW 29.9 mph 42.6 mph 0.01 in Rain Light Rain
6:21 PM 48.2 °F - 44.6 °F 87% 29.74 in 10.0 mi NW 26.5 mph 35.7 mph 0.01 in Rain Light Rain
6:53 PM 48.0 °F - 44.1 °F 86% 29.74 in 10.0 mi NW 25.3 mph 34.5 mph 0.02 in Rain Light Rain
7:53 PM 46.9 °F - 44.1 °F 90% 29.76 in 10.0 mi NW 20.7 mph 32.2 mph 0.02 in Rain Light Rain
8:53 PM 48.0 °F - 43.0 °F 83% 29.77 in 10.0 mi NW 24.2 mph 34.5 mph 0.01 in   Overcast
9:53 PM 46.9 °F - 43.0 °F 86% 29.78 in 10.0 mi NW 21.9 mph 29.9 mph 0.00 in   Overcast
10:53 PM 46.9 °F - 42.1 °F 83% 29.78 in 10.0 mi NW 24.2 mph 34.5 mph N/A   Overcast
11:53 PM 46.0 °F 37.0 °F 41.0 °F 83% 29.78 in 10.0 mi NW 27.6 mph 35.7 mph N/A   Overcast